This is the latest recevied weather packets stored in our database for station/object WB0RXX. If no packets are shown the sender has not sent any weather packets the latest 10 day(s).
| Time | Temp. | Humidity | Pressure | Rain* | Wind** | Luminosity | Snow |
|---|---|---|---|---|---|---|---|
| 1777484404 | 12.22° C | 48% | 1018.9 hPa | 0 mm | - | - | - |
| 1777483805 | 12.78° C | 48% | 1018.9 hPa | 0 mm | - | - | - |
| 1777483219 | 12.22° C | 48% | 1018.9 hPa | 0 mm | - | - | - |
| 1777482603 | 12.22° C | 51% | 1019.2 hPa | 0 mm | - | - | - |
| 1777482005 | 12.22° C | 49% | 1019.3 hPa | 0 mm | - | - | - |
| 1777481404 | 11.67° C | 51% | 1019.3 hPa | 0 mm | - | - | - |
| 1777480803 | 11.67° C | 53% | 1019.3 hPa | 0 mm | - | - | - |
| 1777480204 | 11.67° C | 51% | 1019.4 hPa | 0 mm | - | - | - |
| 1777479604 | 11.11° C | 54% | 1019.4 hPa | 0 mm | - | - | - |
| 1777479005 | 11.11° C | 53% | 1019.5 hPa | 0 mm | - | - | - |
| 1777478404 | 10.56° C | 53% | 1019.6 hPa | 0 mm | - | - | - |
| 1777477804 | 10° C | 56% | 1019.6 hPa | 0 mm | - | - | - |
| 1777477220 | 9.44° C | 55% | 1019.6 hPa | 0 mm | - | - | - |
| 1777476603 | 9.44° C | 55% | 1019.6 hPa | 0 mm | - | - | - |
| 1777476004 | 9.44° C | 58% | 1019.7 hPa | 0 mm | - | - | - |
| 1777475403 | 8.89° C | 57% | 1019.7 hPa | 0 mm | - | - | - |
| 1777474803 | 8.89° C | 58% | 1019.7 hPa | 0 mm | - | - | - |
| 1777474203 | 8.89° C | 58% | 1019.9 hPa | 0 mm | - | - | - |
| 1777473604 | 7.78° C | 59% | 1020 hPa | 0 mm | - | - | - |
| 1777473005 | 7.78° C | 59% | 1020 hPa | 0 mm | - | - | - |
| 1777472404 | 7.22° C | 60% | 1019.9 hPa | 0 mm | - | - | - |
| 1777471805 | 6.67° C | 59% | 1019.9 hPa | 0 mm | - | - | - |
| 1777471205 | 6.11° C | 62% | 1020 hPa | 0 mm | - | - | - |
| 1777470603 | 5.56° C | 65% | 1020.1 hPa | 0 mm | - | - | - |
| 1777470003 | 5.56° C | 73% | 1020.1 hPa | 0 mm | - | - | - |
* Rain latest hour (hover to see other rain measurements)
** Current wind speed in m/s (hover to see current wind gust speed)